Tracking 30995 objects as of 5-Jul-2025
HD Live streaming from Space Station
objects crossing your sky now

CZ-3A DEB

Track CZ-3A DEB now!


NORAD ID: 40157
Int'l Code: 2007-003AR
Perigee: 928.5 km
Apogee: 42,665.1 km
Inclination: 24.5 °
Period: 784.1 minutes
Semi major axis: 28167 km
RCS: Unknown
Launch date: February 2, 2007
Source: People's Republic of China (PRC)
Launch site: Xichang Space Center, China (XSC)

Note: This is SATELLITE DEBRIS
Your satellite tracking list
STARLINK-1733
Track 1 satellite(s)




NASA's NSSDC Master Catalog

Two Line Element Set (TLE):
1 40157U 07003AR  25183.14290899 -.00000080  00000-0  34012-2 0  9999
2 40157  24.5152  83.0246 7408556 253.2789 347.9398  1.83642389101876
Source of the keplerian elements: AFSPC